Regional Weather Roundup
Issued by NWS

Home | Current Version | Previous Version | Text Only | Print | Product List | Glossary On
Versions: 1 2 3 4 5 6 7 8 9 10 11 12 13 14 15 16 17 18 19 20 21 22 23 24 25 26 27 28 29 30 31 32 33 34 35 36 37 38 39 40 41 42 43 44 45 46 47 48 49 50
000
ASUS43 KDTX 261010
RWRMI
MICHIGAN HOURLY REGIONAL WEATHER ROUNDUP
NATIONAL WEATHER SERVICE DETROIT/PONTIAC MI
600 AM EDT TUE MAY 26 2015

NOTE: "FAIR" INDICATES FEW OR NO CLOUDS BELOW 12,000 FEET WITH NO
SIGNIFICANT WEATHER AND/OR OBSTRUCTION TO VISIBILITY.

MIZ047>049-052>055-059>063-066>070-074>076-081>083-261100-
SOUTHEAST LOWER MICHIGAN

CITY           SKY/WX    TMP DP  RH WIND       PRES   REMARKS
ADRIAN         CLEAR     64  62  93 SW6       30.06R
ALMA           PTCLDY    63  61  94 S6        29.98S
ANN ARBOR      PTCLDY    62  60  93 S6        30.05R
BAD AXE        PTCLDY    65  60  86 SW8       30.00R
CARO           PTCLDY    64  62  93 S6        30.00R
DETROIT CITY   PTCLDY    66  62  87 SW9       30.05R
DETROIT        CLOUDY    65  62  90 S3        30.05R
FLINT          MOCLDY    67  62  84 SW7       30.02R
GROSSE ILE     PTCLDY    64  61  88 S8        30.04R
HILLSDALE      CLOUDY    65  65 100 S6        30.05S
HOWELL         PTCLDY    64  62  94 S5        30.03S

CITY           SKY/WX    TMP DP  RH WIND       PRES   REMARKS
JACKSON        PTCLDY    63  61  93 S6        30.04R
LAMBERTVILLE   CLEAR     64  61  88 SW5       30.07R
LANSING        MOCLDY    65  62  90 S8        30.01S
LAPEER         FAIR      63  61  94 S5        30.03R
MASON          MOCLDY    63  60  93 CALM      30.03R
MONROE         PTCLDY    64  63  94 S6        30.04R
MT. CLEMENS    PTCLDY    67  63  86 SW10      30.02R
PONTIAC        MOCLDY    64  62  93 S6        30.04R
PORT HOPE        N/A    N/A N/A N/A SW8       29.96R
PORT HURON     MOCLDY    63  61  94 S6        30.03S
TRI CITIES     PTCLDY    66  61  84 S7        29.99R
MIDLAND        FAIR      63  60  91 CALM      29.98R
TROY           PTCLDY    67  64  87 SW6       30.06R
SAGINAW HB     PTCLDY    64  64 100 S10       29.99R
$$
MIZ043>046-050>051-056>058-064>065-071>073-077>080-261100-
SOUTHWEST LOWER MICHIGAN

CITY           SKY/WX    TMP DP  RH WIND       PRES   REMARKS
BATTLE CREEK   CLOUDY    66  63  90 S7        30.02S
BENTON HARBOR  PTCLDY    65  63  93 S8        29.97S
BIG RAPIDS     CLEAR     58  56  91 SE5       29.96S
COLDWATER      CLOUDY    65  63  93 S5        30.03S
FREMONT        FAIR      60  59  97 CALM      29.96R
HOLLAND        PTCLDY    64  62  93 S5        29.98R
GRAND RAPIDS   MOCLDY    65  63  93 S9        29.98S
IONIA          FAIR      65  63  91 S8        29.99S
KALAMAZOO      CLOUDY    67  63  87 S8        30.01S
LUDINGTON      PTCLDY    68  61  77 S8        29.92S
MARSHALL       MOCLDY    65  63  91 S5        30.02S
MOUNT PLEASANT CLEAR     65  61  87 S5        29.97R
MUSKEGON       PTCLDY    67  61  81 S16       29.95S
SOUTH HAVEN    PTCLDY    65  63  93 S6        29.97S
$$
MIZ016>042-261100-
NORTHERN LOWER MICHIGAN

CITY           SKY/WX    TMP DP  RH WIND       PRES   REMARKS
ALPENA         CLEAR     64  59  83 S5        29.92R
BEAVER ISLAND  CLEAR     59  57  94 SW12G20   29.87R
BELLAIRE       FOG       58  57  96 CALM      29.90S VSB 1
CADILLAC       CLOUDY    62  58  87 S7        29.95S
CHARLEVOIX     MOCLDY    65  61  87 S8        29.91S
FRANKFORT      CLEAR     69  55  61 S8G16     29.89S
GAYLORD        MOCLDY    64  61  90 SW9       29.93R
GRAYLING       MOCLDY    63  57  82 CALM      29.95S
HARBOR SPRINGS MOCLDY    60  59  97 CALM      29.89S
HOUGHTON LAKE  FAIR      62  57  83 SW7       29.96R
MANISTEE       CLOUDY    64  57  77 CALM      29.92S
OSCODA         PTCLDY    63  60  91 SW6       29.95R
PELLSTON       PTCLDY    63  60  90 SW3       29.89R
ROGERS CITY    FAIR      64  61  91 SW7       29.90S
TRAVERSE CITY  PTCLDY    67  58  72 VRB3      29.89S
$$
MIZ007>008-015-261100-
EASTERN UPPER MICHIGAN

CITY           SKY/WX    TMP DP  RH WIND       PRES   REMARKS
KINROSS        PTCLDY    55  55 100 S3        29.86S
MACKINAC ISLAN MOCLDY    61  61  99 SW9       29.87R
NEWBERRY       PTCLDY    53  53 100 SW12      29.84R FOG
S. S. MARIE    MOCLDY    58  56  93 W5        29.85R
MUNISING         N/A     62  59  90 S8        29.80S
$$
MIZ004>006-011>014-085-261100-
CENTRAL UPPER MICHIGAN

CITY           SKY/WX    TMP DP  RH WIND       PRES   REMARKS
MANISTIQUE     FOG       48  47  97 S5        29.84R VSB<1/4
ESCANABA       CLOUDY    55  54  94 CALM      29.82F VSB 1/4
MENOMINEE      CLEAR     61  57  88 SW3       29.83R
SAWYER-GWINN   PTCLDY    58  57  95 S5        29.82S
$$
MIZ001>003-009>011-084-261100-
WESTERN UPPER MICHIGAN

CITY           SKY/WX    TMP DP  RH WIND       PRES   REMARKS
IRON MOUNTAIN  CLEAR     57  56  96 CALM      29.81S FOG
HOUGHTON       FOG       49  48  97 NW10      29.78S VSB 1/2
COPPER HARBOR    N/A     50  49  96 N10G18    29.77R
IRONWOOD       CLOUDY    52  52 100 CALM      29.79R
$$

ABBREVIATIONS USED IN REMARKS
   TC - TEMPERATURE IN CELSIUS
  WCI - WIND CHILL INDEX
   HX - HEAT INDEX
  VSB - VISIBILITY




USA.gov is the U.S. government's official web portal to all federal, state and local government web resources and services.